1st Responders/1st Detectors/Storm Spotters Weather Summary for Powell County, KY

Forecast Maps


Reg. NEXRAD Animation


National Fire Danger: Day 1 & 2 Map

Current NWS Watch/Warnings

SPC Convective Day 1 Outlook


Day 2 Outlook

(Click images to enlarge|Page will refresh every 5 minutes)
UK Ag. Weather Center Desktop Severe Weather Service[HERE]
Powell County, KY Hazardous Weather Outlook Webcast
(9 AM to 9 PM Mon-Fri)
[Fast]
[Dial-up]


UKAWC 1st Detectors/1st Responders Precision Weather Forecast For POWELL County, Kentucky
(based on the NWS County Digital Forecast)

ISSUED AT 05:00 UTC ON WEDNESDAY JUL 15 2020
DAY WEDNESDAY
EDT 3HR 2A 3A 4A 5A 6A 7A 8A 9A 10A 11A NOON 1P 2P 3P 4P 5P 6P 7P
MAX/MIN -- -- -- -- -- -- 63° -- -- -- -- -- -- -- -- -- -- 94°
TEMP 65° 65° 63° 63° 63° 63° 67° 72° 79° 85° 90° 92° 92° 94° 94° 94° 92° 90°
SKY COVER 8% 56% 70% 70% 70% 70% 1% 1% 2% 2% 3% 4% 9% 14% 17% 19% 17% 13%
Clouds
DEW PT 65° 65° 63° 63° 63° 63° 63° 63° 63° 65° 65° 65° 65° 65° 65° 65° 65° 67°
RH 99% 99% 100% 100% 100% 99% 90% 73% 58% 49% 44% 41% 39% 38% 38% 40% 41% 45%
POP 12HR -- -- -- -- -- -- 0% -- -- -- -- -- -- -- -- -- -- --
RAIN/SNOW (liq.equ) 0.00in -- -- -- -- -- 0.00in -- -- -- -- -- 0.00in -- -- -- -- --
SNOWFALL 0in -- -- -- -- -- 0in -- -- -- -- -- 0in -- -- -- -- --
WIND SPEED(MPH) 0 0 0 0 0 0 0 0 1 2 2 2 2 2 2 2 2 2
WIND Gust(MPH) 5 2 2 2 2 2 2 5 6 6 7 8 9 9 10 9 10 9
WIND DIR E E E E E E E SE SE S S S SW S S S S S
DEW Mod Dew Hvy Dew Hvy Dew Hvy Dew Hvy Dew Hvy Dew Hvy Dew Lgt Dew -- -- -- -- -- -- -- -- -- --
HeatIndex 65 65 63 63 63 63 67 72 81 87 92 94 95 96 96 97 95 94
Rain Showers -- -- -- -- -- -- -- -- -- -- -- -- -- -- -- -- -- --
Thunder Storm -- -- -- -- -- -- -- -- -- -- -- -- -- -- -- -- -- --
Fog -- -- -- Patchy -- -- -- -- -- -- -- -- -- -- -- -- -- --
WIND CHILL -- -- -- -- -- -- -- -- -- -- -- -- -- -- -- -- -- --
SPRAY COND
DRY COND
LIVESTOCK HEATSTRESS 64.97 64.97 63.00 63.00 63.00 62.98 66.55 70.04 74.33 77.65 80.39 81.23 80.86 82.00 82.00 82.38 81.23 80.56



DAY THURSDAY FRIDAY SATURDAY SUNDAY MONDAY TUESDAY
EDT 6HR 8P 9P 10P 11P MIDN 1A 2A 3A 4A 5A 6A 7A 8A 9A 10A 11A NOON 1P 2P 5P 8P 11P 2A 5A 8A 11A 2P 5P 8P 2A 8A 2P 8P 2A 8A 2P 8P 2A 8A 2P 8P 2A 8A 2P 8P
MAX/MIN -- -- -- -- -- -- -- -- -- -- -- -- 70° -- -- -- -- -- -- 92° -- -- -- -- 72° -- -- 90° -- -- 70° 90° -- -- 70° 92° -- -- 72° 94° -- -- 70° 92° --
TEMP 88° 83° 79° 76° 74° 72° 72° 72° 70° 70° 70° 70° 76° 79° 83° 86° 88° 90° 90° 90° 86° 79° 76° 72° 74° 83° 86° 88° 85° 72° 74° 88° 83° 74° 74° 90° 86° 74° 74° 92° 86° 74° 74° 90° 85°
SKY COVER 10% 10% 11% 13% 15% 17% 20% 23% 26% 29% 33% 36% 40% 44% 47% 51% 53% 56% 58% 60% 60% 60% 61% 69% 76% 77% 75% 73% 69% 53% 59% 57% 53% 50% 54% 44% 42% 25% 43% 49% 45% 42% 47% 66% 50%
Clouds
DEW PT 68° 67° 67° 67° 67° 67° 65° 65° 65° 65° 67° 67° 68° 70° 70° 72° 72° 72° 72° 70° 70° 72° 70° 70° 70° 74° 74° 74° 72° 72° 72° 72° 72° 72° 72° 72° 72° 70° 70° 72° 72° 70° 70° 72° 72°
RH 54% 59% 64% 73% 78% 81% 81% 81% 84% 86% 89% 90% 79% 71% 65% 60% 57% 55% 54% 52% 59% 79% 84% 90% 87% 74% 68% 63% 67% 100% 93% 59% 69% 93% 90% 56% 61% 87% 86% 52% 61% 87% 87% 55% 65%
POP 12HR 0% -- -- -- -- -- -- -- -- -- -- -- 6% -- -- -- -- -- -- -- 34% -- -- -- 55% -- -- -- 65% -- 31% -- 57% -- 34% -- 44% -- 22% -- 40% -- 27% -- 58%
RAIN/SNOW (liq.equ) 0.00in -- -- -- -- -- 0.00in -- -- -- -- -- 0.00in -- -- -- -- -- 0.02in -- 0.02in -- 0.00in -- 0.16in -- 0.13in -- 0.03in -- -- -- -- -- -- -- -- -- -- -- -- -- -- -- --
SNOWFALL 0in -- -- -- -- -- 0in -- -- -- -- -- 0in -- -- -- -- -- 0in -- 0in -- 0in -- 0in -- 0in -- 0in -- -- -- -- -- -- -- -- -- -- -- -- -- -- -- --
WIND SPEED(MPH) 1 1 1 1 1 1 1 0 0 0 0 1 2 5 5 6 7 7 7 6 1 0 1 1 1 2 2 1 1 0 0 2 1 1 1 5 1 1 1 5 1 1 1 5 1
WIND DIR S SE SE SE SE SE S S S S S S S S SW SW SW SW SW SW SW S S SW SW SW SW SW SW S S SW SW S SW SW SW SW SW SW SW SW SW SW SW
HeatIndex 92 87 82 76 74 72 72 72 70 70 70 70 76 83 88 93 96 97 98 97 92 79 76 72 74 92 96 96 91 72 74 97 90 74 74 99 93 74 74 99 93 74 74 99 90
Rain Showers -- -- -- -- -- -- -- -- -- -- -- -- -- -- -- Slight Chance Slight Chance Chance Chance Chance Slight Chance Chance Chance Chance Likely Likely Likely Chance Chance Slight Chance Chance Chance Chance Slight Chance Chance Chance Slight Chance -- Slight Chance Chance Chance Slight Chance Chance Chance Chance
Thunder Storm -- -- -- -- -- -- -- -- -- -- -- -- -- -- -- Slight Chance Slight Chance Chance Chance Chance Slight Chance Chance Chance Chance Chance Chance Chance Chance Chance Slight Chance Chance Chance Chance Slight Chance Chance Chance Slight Chance -- Slight Chance Chance Chance Slight Chance Chance Chance Chance
Fog -- -- -- -- -- -- -- -- -- -- -- -- -- -- -- -- -- -- -- -- -- -- -- -- -- -- -- -- -- -- -- -- -- -- -- -- -- -- -- -- -- -- -- -- --
WIND CHILL -- -- -- -- -- -- -- -- -- -- -- -- -- -- -- -- -- -- -- -- -- -- -- -- -- -- -- -- -- -- -- -- -- -- -- -- -- -- -- -- -- -- -- -- --
SPRAY COND
DRY COND
LIVESTOCK HEATSTRESS 80.61 77.54 75.00 73.45 72.16 70.62 70.62 70.62 69.01 69.14 69.32 69.38 74.01 75.78 78.34 80.02 81.09 82.28 82.11 81.76 79.87 76.67 74.49 71.27 72.91 79.54 81.21 82.06 80.24 72.00 73.41 81.42 78.87 73.41 73.16 82.45 80.17 72.91 72.83 83.24 80.17 72.91 72.91 82.28 79.96

Click on individual weather variable above in left-hand column (ie., TEMP, RH, QPF 12HR) to view state forecast maps






NWS 48 Hr. Forecast Maps,

Regional Hourly Observations For POWELL County, Kentucky
Issued at 100 AM EDT WED JUL 15 2020
NORTHEAST KENTUCKY
  
CITY           SKY/WX    TMP DP  RH WIND       PRES   REMARKS
LEXINGTON      CLEAR     68  62  81 SE3       30.08S                  
COVINGTON      PTCLDY    73  61  65 CALM      30.07R                  
FRANKFORT      CLEAR     67  63  87 N3        30.07R                  


Current NOWCAST not available:
Nowcasts are not issued routinely during fair weather. Only when
precipitation or other significant weather is occuring in this county will these
forecasts be issued. Currently, there is no short term forecast in effect.


Fire Weather Forecast For POWELL County, KY
Provided by the National Weather Service:

Issued at: Wed Jul 15 01:05:01 EDT 2020

454 AM EDT Tue Jul 14 2020

                      Today        Tonight      Wed          

Cloud Cover           Mclear       Mclear       Mclear       
Chance precip (%)     0            0            0            
Precip type           None         None         None         
Temp (24H TREND)      87 (+3)      62 (0)       93           
Rh % (24H TREND)      39 (-12)     100 (0)      34           
20ftwnd-AM(mph)       Lgt/Var                   Lgt/Var      
20ftwnd-PM(mph)       Lgt/Var      Lgt/Var      Lgt/Var      
Precip duration                                              
Precip begin                                                 
Precip end                                                   
Precip amount         0.00         0.00         0.00         
LAL                   1            1            1            
Haines Index (MID)    2                         3            
Mixing hgt(ft-AGL)    5800                      6400         
Transport wnd (mph)   SE  2                     S  5         
Vent rate (kt-ft)     11169                     24540        
ADI Early             15 Gen Poor  2 Very Poor  19 Gen Poor  
ADI Late              15 Gen Poor  2 Very Poor  31 Fair      
Max LVORI Early       9            6            6            
Max LVORI Late        2            8            2            

Remarks...None.


SPC's Fire Weather Web Tool (Excellent!), SPC's Fire Weather Outlooks, NWS Fire Weather WEB, Fire Danger Class Map,
Keetch-Byram Drought Index, ROMAN Web, Haines Index ,
WFAS's 10-hr Dead Fuel Moist., WFAS's 100-hr Dead Fuel Moist., Probablity of Ignition, Visual blackness Map, Palmer Drought Index, HPC's Rainfall Forecast Maps


Hazardous Weather Outlook For POWELL County, Kentucky
446 PM EDT Tue Jul 14 2020

 DAY ONE  Tonight.

No hazardous weather is expected at this time.

 DAYS TWO THROUGH SEVEN  Wednesday through Monday.

Thunderstorms will be possible at times from Thursday through 
Monday.

Afternoon heat indices will peak between 95 and 100 degrees on 
Wednesday and Thursday, then again from Saturday through Monday.

 SPOTTER INFORMATION STATEMENT  

Spotter activation is not anticipated.

Latest POWELL County, Kentucky Watches, Warnings and Advisories.
Additional Drought Info.: UKAWC Drought Page, Kentucky Drought Watch


7-Day Forecast For POWELL County, KY

TONIGHT
Mostly clear. Lows in the mid 60s. Light winds.

WEDNESDAY
Warm, sunny. Highs in the lower 90s. Light winds.

WEDNESDAY NIGHT
Mostly clear. Lows around 70. Light winds.

THURSDAY
Partly sunny. A slight chance of showers and thunderstorms in the morning, then a chance of showers and thunderstorms in the afternoon. Highs in the lower 90s. Light winds. Chance of rain 30 percent.

THURSDAY NIGHT
Mostly cloudy with a 50 percent chance of showers and thunderstorms. Lows in the lower 70s. Light winds.

FRIDAY
Mostly cloudy with showers likely and a chance of thunderstorms. Highs in the upper 80s. Chance of rain 70 percent.

FRIDAY NIGHT
Mostly cloudy with a 40 percent chance of showers and thunderstorms. Lows in the lower 70s.

SATURDAY
Partly sunny with showers likely and a chance of thunderstorms. Highs around 90. Chance of rain 60 percent.

SATURDAY NIGHT
Mostly cloudy with a 40 percent chance of showers and thunderstorms. Lows in the lower 70s.

SUNDAY
Mostly sunny with a 50 percent chance of showers and thunderstorms. Highs in the lower 90s.

SUNDAY NIGHT
Partly cloudy with a 20 percent chance of showers and thunderstorms. Lows in the lower 70s.

MONDAY
Mostly sunny with a 40 percent chance of showers and thunderstorms. Highs in the lower 90s.

MONDAY NIGHT
Partly cloudy with a 30 percent chance of showers and thunderstorms. Lows in the lower 70s.

TUESDAY
Partly sunny with showers likely and a chance of thunderstorms. Highs in the lower 90s. Chance of rain 60 percent.

Ag Weather Center, Department of Biosystems & Agricultural Engineering, University of Kentucky